Regional Weather Roundup
Issued by NWS Midland/Odessa, TX

Home | Current Version | Previous Version | Text Only | Print | Product List | Glossary On
Versions: 1 2 3 4 5 6 7 8 9 10 11 12 13 14 15 16 17 18 19 20 21 22 23 24 25 26 27 28 29 30 31 32 33 34 35 36 37 38 39 40 41 42 43 44 45 46 47 48 49 50
000
ASUS44 KMAF 051410
RWRMAF
MIDLAND AREA WEATHER ROUNDUP
NATIONAL WEATHER SERVICE MIDLAND TX
900 AM CDT TUE MAY 05 2015

...IN SOUTHWEST TEXAS AND SOUTHEAST NEW MEXICO...

CITY           SKY/WX    TMP DP  RH WIND       PRES   REMARKS
ALPINE         SUNNY     66  47  50 W7        30.04R
ANDREWS        TSTM      56  56 100 CALM      29.92R
ARTESIA        SUNNY     61  61 100 W5        29.92S
BIG SPRING     CLOUDY    65  62  89 SE14      29.91S
CARLSBAD       SUNNY     62  56  80 W7        29.91R
DRYDEN           N/A     70  64  81 SE13G21   29.88R
FORT STOCKTON  SUNNY     68  60  75 W7        29.92R
GUAD PASS      MOSUNNY   53  51  93 SW8       30.01R
HOBBS          PTSUNNY   55  55 100 CALM      29.94R
MARFA          SUNNY     57  52  82 NW5       30.03R
MIDLAND AIRPK  RAIN      66  63  88 S16       29.89S
MIDLAND INTL   TSTM      65  63  93 S20G26    29.88S FOG
ODESSA         LGT RAIN  64  61  90 S20       29.88R FOG
PECOS          SUNNY     64  55  73 W14       29.90R
PRESIDIO       FAIR      73  41  30 W5        29.93R
SEMINOLE       PTSUNNY   55  54  98 E8        29.91S
SNYDER         CLOUDY    62  60  94 SE16G24   29.93R
WINK           MOSUNNY   65  54  67 N12       29.88R
$$
...OTHER STATIONS IN TEXAS...

CITY           SKY/WX    TMP DP  RH WIND       PRES   REMARKS
ABILENE        CLOUDY    68  59  73 S22G31    29.94F
AMARILLO       RAIN      56  56 100 SW7       29.91R FOG
AUSTIN         PTSUNNY   70  67  90 SE13      29.99S
BROWNSVILLE    CLOUDY    78  72  81 SE18G25   29.93R
CORPUS CHRISTI CLOUDY    77  70  79 SE20G25   29.94R
DALLAS FTW     PTSUNNY   66  62  87 SE12      30.03S
DEL RIO        CLOUDY    70  66  87 SE14      29.89R
EL PASO        MOSUNNY   63  40  42 W10       29.95R
HOUSTON INT    PTSUNNY   75  70  84 SE10      30.03R
LUBBOCK        LGT RAIN  55  52  89 N20G29    29.88F
SAN ANGELO     CLOUDY    68  60  75 E7        29.92R
SAN ANTONIO    CLOUDY    72  67  84 SE14      29.98R
WACO           CLOUDY    67  62  84 SE10      30.03R
WICHITA FALLS  NOT AVBL
$$
...OTHER LOCATIONS IN NEW MEXICO...

CITY           SKY/WX    TMP DP  RH WIND       PRES   REMARKS
ALAMAGORDO     CLOUDY    54  54 100 S9        29.96R
ALBUQUERQUE    MOSUNNY   52  47  83 S10       29.96S
CANNON AFB     PTSUNNY   54  52  94 E18       29.80F
CLOVIS         CLOUDY    54  52  94 NE20      29.82F
HOLLOMAN AFB   MOSUNNY   55  55 100 S10       29.94R
ROSWELL        MOSUNNY   59  54  83 SW8       29.89S
RUIDOSO        MOSUNNY   48  45  87 SW6       30.03R
SANTA FE       CLOUDY    48  43  82 VRB3      29.97S
TRUTH OR CONSE SUNNY     57  39  51 NW6       29.96R
TUCUMCARI      CLOUDY    55  53  93 E7        29.86F
$$



USA.gov is the U.S. government's official web portal to all federal, state and local government web resources and services.